Weather in Stavros

Greece     40°39′54″N   23°41′51″E
temp.,
°C
wind,
m/s
gust,
m/s
humid.,
%
clouds,
%
prec.,
mm/h
press.,
hPa
HPBL,
m
26 february, fri
fri2623:00+10se01770 0.0 103342
02:00+9wsw01770 0.0 103247
05:00+9nw11780 0.0 103137
08:00+9nw12780 0.0 103043
11:00+14e00630 0.0 1030345
14:00+15sse11600 0.0 1027584
17:00+14se22690 0.0 1025209
20:00+11se12840 0.0 102471
27 february, sat
sat2723:00+10se11870 0.0 102455
02:00+9wnw11860 0.0 102339
05:00+9wnw22850 0.0 102143
08:00+10wnw22820 0.0 102163
11:00+15wnw11660 0.0 1020368
14:00+16se11600 0.0 1018666
17:00+14ese22700 0.0 1018194
20:00+11se11840 0.0 101940
28 february, sun
sun2823:00+12wnw337428 0.0 102162
02:00+11wnw346454 0.0 1022158
05:00+10wnw3560100 0.1 1023316
08:00+9n1357100 0.1 1025368
11:00+8se358197 0.8 1027627
14:00+8ese347198 1.4 1027710
17:00+9se336480 0.0 1026754
20:00+8e347453 0.0 1029397
1 march, mon
mon123:00+7e228583 0.1 1030266
02:00+6s118983 0.4 1031103
05:00+5nw228670 0.1 103072
08:00+5nw228466 0.1 1030111
11:00+9ene116932 0.1 1030658
14:00+9se437730 0.5 1029609
17:00+8se447537 0.1 1029543
20:00+6ene458968 1.8 1032460
2 march, tue
tue223:00+5e128659 1.0 1034209
02:00+5nnw018134 1.0 1035200
05:00+4nw22896 0.0 103584
08:00+4nw22873 0.0 1036133
11:00+8n12570 0.0 1035756
14:00+10se22570 0.0 1034849
17:00+8se34680 0.0 1033414
20:00+6se23750 0.0 1034187